Regional Weather Roundup
Issued by NWS Burlington, VT

Home | Current Version | Previous Version | Text Only | Print | Product List | Glossary On
Versions: 1 2 3 4 5 6 7 8 9 10 11 12 13 14 15 16 17 18 19 20 21 22 23 24 25 26 27 28 29 30 31 32 33 34 35 36 37 38 39 40 41 42 43 44 45 46 47 48 49 50
000
ASUS41 KBTV 200910
RWRBTV
VERMONT REGIONAL WEATHER ROUNDUP
NATIONAL WEATHER SERVICE BURLINGTON VT
500 AM EDT FRI APR 20 2018

NOTE: "FAIR" INDICATES FEW OR NO CLOUDS BELOW 12,000 FEET WITH NO
SIGNIFICANT WEATHER AND/OR OBSTRUCTIONS TO VISIBILITY.

* THESE REPORTS ARE NOT UNDER NWS QUALITY CONTROL AND/OR DO NOT
  REPORT WEATHER SUCH AS PRECIPITATION AND FOG.

VTZ001>019-201000-
_____VERMONT_____


CITY           SKY/WX    TMP DP  RH WIND       PRES   REMARKS
BURLINGTON     LGT SNOW  34  26  72 NW10G21   29.98R WCI  26
MONTPELIER     FLURRIES  30  26  85 NW18G28   29.94R WCI  18
MORRISVILLE    LGT SNOW  31  25  78 NW5       29.93R WCI  26
ST. JOHNSBURY*   N/A     32  27  81 MISG      29.87R
LYNDONVILLE*   LGT SNOW  30  28  90 W8        29.87R WCI  23
MIDDLEBURY*    LGT SNOW  31  28  86 N6        29.97R WCI  25
RUTLAND*       FLURRIES  30  28  92 NW8       29.96R WCI  22
SPRINGFIELD    CLOUDY    33  25  72 W7        29.94R WCI  27
HIGHGATE*      CLOUDY    32  28  86 W8        29.97R WCI  25
NEWPORT*       CLOUDY    31  27  85 W13G22    29.89R WCI  21
BENNINGTON     CLOUDY    32  23  69 W6        29.97R WCI  26

_____LAKE CHAMPLAIN_____


CITY           SKY/WX    TMP DP  RH WIND       PRES   REMARKS
BURTON ISLAND*   N/A     34  30  86 NW21G30     N/A  WCI  22
COLCHESTER RF*   N/A     34  27  75 NW24        N/A  WCI  21

$$

NYZ007-026>031-035-052-083-087-201000-
_____NORTHERN NEW YORK_____


CITY           SKY/WX    TMP DP  RH WIND       PRES   REMARKS
PLATTSBURGH    CLOUDY    33  24  69 NW12G21   29.98R WCI  24
SARANAC LAKE   CLOUDY    25  22  88 VRB6      29.96R WCI  18
MASSENA        CLOUDY    32  26  78 W12G20    30.09R WCI  23
OGDENSBURG*    FAIR      32  24  72 NW9       30.12R WCI  24
POTSDAM*       MIX PCPN  30  25  80 NW8G18    30.08R WCI  23
FT DRUM        CLOUDY    29  23  77 W3        30.11R
ALBANY         FAIR      32  22  66 VRB5      30.03R WCI  27
GLENS FALLS    CLOUDY    33  22  63 NW13G20   30.00R WCI  24

$$
NHZ002-005-011-201000-
_____NEW HAMPSHIRE_____


CITY           SKY/WX    TMP DP  RH WIND       PRES   REMARKS
LEBANON        CLOUDY    35  23  61 NW9G18    29.91R WCI  28
KEENE          CLOUDY    34  25  69 VRB3      29.93R
MT WASHINGTON  SNOW      10  10 100 NW48G61     N/A  VSB 0   WCI -16
PLYMOUTH       LGT SNOW  33  29  86 W13G22    29.87R WCI  23
WHITEFIELD     LGT SNOW  31  29  92 CALM      29.85R FOG

$$

_____REGIONAL QUEBEC LOCATIONS_____


CITY           SKY/WX    TMP DP  RH WIND       PRES   REMARKS
MONTREAL       FLURRIES  34  25  69 W13       29.99R WCI  25
QUEBEC CITY    FLURRIES  32  32 100 SW3       29.87R
SHERBROOKE     LGT SNOW  32  30  93 W13       29.85R WCI  22

_____REGIONAL ONTARIO LOCATIONS_____


CITY           SKY/WX    TMP DP  RH WIND       PRES   REMARKS
OTTAWA         MOCLDY    28  21  74 NW10G18   30.10R WCI  19

______KEY______
VSB  - VISIBILITY IN MILES
WCI  - WIND CHILL INDEX
HX   - HEAT INDEX
$$
NNNN



USA.gov is the U.S. government's official web portal to all federal, state and local government web resources and services.